BEIDOU-3 M22

Last updated on Dec. 12, 2019, 12:02 a.m. UTC

1 44794U 19078B   19345.24428138 -.00000065  00000-0  10000-3 0  9993
2 44794  54.9893  22.2535 0116155 177.4248 188.6792  1.82912594   337
UTC
Height (km)
Latitude
Longitude
Inclination
Orbital Period
UTC large
Height (km)
Speed (km/s)
/
Latitude / Longitude
Inclination (degrees)
Orbital Period (minutes)
Azimuth
Elevation
Range (km)
Doppler Factor
iOS Compass Heading
iOS Angle

Next 30 passes for location: Hong Kong

Rise time Rise Azimuth (degrees) Set time Set Azimuth (degrees) Duration Max altitude (degrees)

No matching passes for this satellites